Regional Weather Roundup
Issued by NWS

Home | Current Version | Previous Version | Graphics & Text | Print | Product List | Glossary On
Versions: 1 2 3 4 5 6 7 8 9 10 11 12 13 14 15 16 17 18 19 20 21 22 23 24 25 26 27 28 29 30 31 32 33 34 35 36 37 38 39 40 41 42 43 44 45 46 47 48 49 50
000
ASUS43 KDTX 210401
RWRMI
MICHIGAN HOURLY REGIONAL WEATHER ROUNDUP
NATIONAL WEATHER SERVICE DETROIT/PONTIAC MI
1100 PM EST SAT DEC 20 2014

NOTE: "FAIR" INDICATES FEW OR NO CLOUDS BELOW 12,000 FEET WITH NO
SIGNIFICANT WEATHER AND/OR OBSTRUCTION TO VISIBILITY.

MIZ047>049-052>055-059>063-066>070-074>076-081>083-210500-
SOUTHEAST LOWER MICHIGAN

CITY           SKY/WX    TMP DP  RH WIND       PRES   REMARKS
ADRIAN         CLEAR     25  21  85 CALM      30.28S
ALMA           CLOUDY    28  25  89 CALM      30.27F
ANN ARBOR      CLOUDY    27  22  81 CALM      30.27F
BAD AXE        PTCLDY    19  19  98 CALM      30.28S
CARO           PTCLDY    24  22  92 CALM      30.27F
DETROIT CITY   CLOUDY    31  22  69 CALM      30.29F
DETROIT        CLOUDY    29  23  78 CALM      30.29F
FLINT          PTCLDY    22  18  85 CALM      30.27F
GROSSE ILE     CLOUDY    30  25  80 CALM      30.27F
HILLSDALE      CLOUDY    25  23  94 CALM      30.24F FOG
HOWELL         CLEAR     24  21  86 CALM      30.25F

CITY           SKY/WX    TMP DP  RH WIND       PRES   REMARKS
JACKSON        CLOUDY    25  22  88 CALM      30.25F
LAMBERTVILLE   CLOUDY    30  25  80 CALM      30.28S
LANSING        CLOUDY    27  22  81 CALM      30.27F
LAPEER         MOCLDY    26  22  84 CALM      30.27F
MASON          CLOUDY    26  23  88 CALM      30.26S
MONROE         CLOUDY    30  25  80 CALM      30.27S
MT. CLEMENS    CLOUDY    29  25  84 CALM      30.26F
PONTIAC        CLOUDY    28  20  71 S3        30.25F
PORT HOPE        N/A     23  20  88 CALM      30.27R
PORT HURON     CLOUDY    27  25  93 CALM      30.29S
TRI CITIES     PTCLDY    25  21  85 CALM      30.29S
TROY           CLOUDY    32  21  64 CALM      30.30S
SAGINAW HB     CLOUDY    27  27 100 CALM      30.28S
$$
MIZ043>046-050>051-056>058-064>065-071>073-077>080-210500-
SOUTHWEST LOWER MICHIGAN

CITY           SKY/WX    TMP DP  RH WIND       PRES   REMARKS
BATTLE CREEK   CLOUDY    31  26  82 CALM      30.26S
BENTON HARBOR  CLOUDY    31  26  82 S3        30.27S
BIG RAPIDS     CLOUDY    29  27  92 S3        30.23S
COLDWATER      CLOUDY    29  27  92 MISG      30.26S
FREMONT        CLOUDY    29  28  94 SE3       30.24S FOG
HOLLAND        CLOUDY    32  28  85 S6        30.26S WCI  26
GRAND RAPIDS   LGT SNOW  30  25  81 SE5       30.26F WCI  25
IONIA          CLOUDY    30  27  86 S5        30.26S WCI  25
KALAMAZOO      CLOUDY    30  27  88 S3        30.27S FOG
LUDINGTON      CLOUDY    31  28  88 SE5       30.24S FOG     WCI  26
MARSHALL       CLOUDY    28  24  84 CALM      30.25F
MOUNT PLEASANT CLOUDY    27  25  93 CALM      30.26S
MUSKEGON       LGT SNOW  31  27  85 S5        30.25F FOG     WCI  26
SOUTH HAVEN    CLOUDY    32  27  81 S5        30.26S WCI  27
$$
MIZ016>042-210500-
NORTHERN LOWER MICHIGAN

CITY           SKY/WX    TMP DP  RH WIND       PRES   REMARKS
ALPENA         CLOUDY    23  20  88 CALM      30.27S
BEAVER ISLAND  CLOUDY    30  26  83 SE5       30.23F WCI  25
BELLAIRE       CLOUDY    27  22  82 CALM      30.27S
CADILLAC       CLOUDY    26  22  87 CALM      30.21S
CHARLEVOIX     CLOUDY    28  22  79 S6        30.27S WCI  21
FRANKFORT      CLOUDY    29  25  84 CALM      30.24S
GAYLORD        MOCLDY    18  16  92 S6        30.22S WCI  10
GRAYLING       CLOUDY    18  17  95 CALM      30.25R
HARBOR SPRINGS CLOUDY    23  19  86 E6        30.25S WCI  16
HOUGHTON LAKE  CLOUDY    18  15  88 E3        30.24S
MANISTEE       CLOUDY    28  21  74 CALM      30.25S
OSCODA         MOCLDY    18  17  96 CALM      30.27S
PELLSTON       CLOUDY    19  16  88 CALM      30.26S
ROGERS CITY    MOCLDY    17  17  99 CALM      30.28R
TRAVERSE CITY  CLOUDY    29  22  75 CALM      30.24F
$$
MIZ007>008-015-210500-
EASTERN UPPER MICHIGAN

CITY           SKY/WX    TMP DP  RH WIND       PRES   REMARKS
KINROSS        CLOUDY    23  21  93 SE3       30.24S
MACKINAC ISLAN CLOUDY    27  21  78 S6        30.24F WCI  20
NEWBERRY       CLOUDY    25  23  91 S7        30.21S WCI  17
S. S. MARIE    CLOUDY    23  18  81 E3        30.23F
MUNISING         N/A     30  22  72 S8        30.20F WCI  22
$$
MIZ004>006-011>014-085-210500-
CENTRAL UPPER MICHIGAN

CITY           SKY/WX    TMP DP  RH WIND       PRES   REMARKS
MANISTIQUE     CLOUDY    24  23  96 CALM      30.22S
ESCANABA       CLOUDY    27  23  86 CALM      30.21F
MENOMINEE      CLOUDY    28  23  80 CALM      30.21F
SAWYER-GWINN   CLOUDY    26  23  89 S7        30.16F WCI  18
$$
MIZ001>003-009>011-084-210500-
WESTERN UPPER MICHIGAN

CITY           SKY/WX    TMP DP  RH WIND       PRES   REMARKS
IRON MOUNTAIN  CLOUDY    27  23  85 SE6       30.16S WCI  20
HOUGHTON       CLOUDY    28  25  88 S7        30.12S WCI  21
COPPER HARBOR    N/A     31  26  82 SW5       30.15S WCI  26
IRONWOOD       CLOUDY    28  27  93 S5        30.08S WCI  23
$$

ABBREVIATIONS USED IN REMARKS
   TC - TEMPERATURE IN CELSIUS
  WCI - WIND CHILL INDEX
   HX - HEAT INDEX
  VSB - VISIBILITY




USA.gov is the U.S. government's official web portal to all federal, state and local government web resources and services.